Regional Weather Roundup
Issued by NWS

Home | Current Version | Previous Version | Text Only | Print | Product List | Glossary On
Versions: 1 2 3 4 5 6 7 8 9 10 11 12 13 14 15 16 17 18 19 20 21 22 23 24 25 26 27 28 29 30 31 32 33 34 35 36 37 38 39 40 41 42 43 44 45 46 47 48 49 50
000
ASUS44 KOUN 280510
RWROK

WEATHER ROUNDUP FOR OKLAHOMA
NATIONAL WEATHER SERVICE NORMAN OK
1100 PM CST FRI FEB 27 2015

NOTE: "FAIR" INDICATES FEW OR NO CLOUDS BELOW 12,000 FEET WITH NO
      SIGNIFICANT WEATHER AND/OR OBSTRUCTIONS TO VISIBILITY.

OKZ001>007-009>012-014-015-017-280600-
NORTHWEST OKLAHOMA AND THE PANHANDLE

CITY           SKY/WX    TMP DP  RH WIND       PRES   REMARKS
GAGE           CLOUDY    14   9  80 SE8       30.35F WCI   3
ENID/WOODRING  MOCLDY    18  14  86 E8        30.47F WCI   7
$$

OKZ016-021>023-033>039-044-045-280600-
SOUTHWEST OKLAHOMA

CITY           SKY/WX    TMP DP  RH WIND       PRES   REMARKS
LAWTON/REGL    CLOUDY    19  15  84 E9        30.44F FOG     WCI   8
LAWTON/FT SILL CLOUDY    18  15  88 E7        30.42F WCI   9
FREDERICK      CLOUDY    19  15  84 NE10      30.41S FOG     WCI   7
CLINTON        CLOUDY    17  12  80 E8        30.40S WCI   7
HOBART         LGT SNOW  17  14  88 E8        30.42S FOG     WCI   7
ALTUS AFB      CLOUDY    18  16  93 E5        30.42S WCI  11
$$

OKZ018>020-024>031-280600-
CENTRAL OKLAHOMA

CITY           SKY/WX    TMP DP  RH WIND       PRES   REMARKS
OKLAHOMA CITY  CLOUDY    19  12  74 E7        30.45F WCI  10
OKC/WILEY POST CLOUDY    19  13  77 E7        30.47S WCI  10
OKC/TINKER AFB FLURRIES  18  12  79 NE7       30.44F WCI   8
STILLWATER     CLOUDY    18  12  77 E6        30.51S WCI  10
GUTHRIE        CLOUDY    18  12  77 E7        30.48F WCI   9
$$

OKZ008-013-054>072-280600-
NORTHEAST OKLAHOMA

CITY           SKY/WX    TMP DP  RH WIND       PRES   REMARKS
TULSA          CLOUDY    19  15  84 NE6       30.54S WCI  11
TULSA/JONES    CLOUDY    20  14  77 NE6       30.54S WCI  12
PONCA CITY     CLOUDY    17  13  84 E6        30.51F WCI   9
BARTLESVILLE   CLOUDY    16  13  88 CALM      30.57R
MUSKOGEE       LGT SNOW  20  16  84 NE6       30.55S FOG     WCI  12
$$

OKZ032-040>043-046>053-073>077-280600-
SOUTH CENTRAL/SOUTHEAST OKLAHOMA

CITY           SKY/WX    TMP DP  RH WIND       PRES   REMARKS
ARDMORE/DWNTWN CLOUDY    21  19  93 E6        30.46F WCI  14
MCALESTER      MIX PCPN  21  17  84 NE5       30.51S WCI  15
$$



USA.gov is the U.S. government's official web portal to all federal, state and local government web resources and services.